CZ-3C DEB, 48545

Orbit data source: Space-Track

CZ-3C DEB, 48545 is space debris in HEO originally from a launch on Sun, 31 Oct 2010 UTC launched from the Xichang Space Center, China (XSC). Debris objects in space refer to the collection of defunct objects orbiting the Earth. Examples of debris include non-operational satellites, rocket bodies, and fragments generated from explosions, collisions, or faulty payload assembly.

Loading next visibility...
Identifier
48545, 2010-057BQ
Orbit
HEO
Country
Flag of CNCN / PRC
Related business
Manufacturer
CALT
Mission
Spacecraft
Bus & Motor
Unknown
Mass
Unknown
Launch date (UTC)
2010-10-31 (16 years ago)
Launch vehicle
Unknown
Launch site
Xichang Space Center, China (XSC)
Object type
Payload
Rocket body
Debris
Shape & HBR
Unknown shape, 0.2 m
Radar Cross Section
Medium (>0.1 m² and <1 m²)

Expand to show TLE details & history
Last TLE update: 10 hours ago

TLE from 10 hours ago
0 CZ-3C DEB
1 48545U 10057BQ  26266.04232398  .00029916  00000-0  76328-2 0  9997
2 48545  17.9959 233.4783 5554210  33.8119 351.6098  4.70203297131860
Epoch: 2026-09-23T01:00Z
TLE epoch observation values (Epoch: 2026-09-23T01:00:56.791Z)
Latitude
-0.00006°
Longitude
-143.6872°
Altitude
747.889 km
Speed
9.24 km/s
True Right ascension
15h 33m 47s
True Declination
0° 00' 00"
Sunlit
Object was in daylight at epoch
Visualization orbit readout
Latitude
Unknown
Longitude
Unknown
Altitude
Unknown
Speed
Unknown
Apparent Right ascension
Unknown
Apparent Declination
Unknown
Sunlit
N/A
Visualization observer readout
Local Sidereal Time
04:07:01
Azimuth
Unknown
Elevation
Unknown
Doppler factor
Unknown
Orbital elements
Apogee altitude
17,038.19 km
Perigee altitude
314.847 km
Semi-major axis
15,054.656 km
Eccentricity
0.55542
Inclination
17.9959°
RAAN
233.4783°
Arg. of periapsis
33.8119°
True anomaly
326.16098°
Mean anomaly
351.6098°
Eccentric anomaly
341.52562°
Mean motion
1.175 °/min
Orbital period
306.38 mins
BSTAR
0.0076328
Loading maneuver chart data...
Computing Atmospheric mass density...
Loading historical data...
Loading historical data...
Loading historical data...
Loading historical data...
Loading historical data...
Loading historical data...
Loading historical data...

Documentation

Showing up to 5 results
|